Saginaw Browne, MI

8:43 PM EST on January 16, 2018 (GMT -0500)
Saginaw County-Browne

Weather History for KHYX - December, 2012

Change the Weather History Date:

Thursday, December 27, 2012

  Actual Average (KMBS) Record (KMBS)
Temperature  
Mean Temperature 26 °F -  
Max Temperature 32 °F 29 °F 54 °F (2008)
Min Temperature 19 °F 16 °F -6 °F (2017)
Degree Days  
Heating Degree Days 40    
Moisture  
Dew Point 20 °F    
Average Humidity 78    
Maximum Humidity 100    
Minimum Humidity 60    
Precipitation  
Precipitation 0.00 in - - ()
Sea Level Pressure  
Sea Level Pressure 30.06 in    
Wind  
Wind Speed 11 mph (NNW)    
Max Wind Speed 23 mph    
Max Gust Speed 28 mph    
Visibility 9 miles    
Events Snow    
Averages and records for this station are not official NWS values.
T = Trace of Precipitation, MM = Missing Value Source: NWS Daily Summary

Daily Weather History Graph

Daily Weather History Graph

Search for Another Location

Airport or City:

Trip Planner

Search our weather history database for the weather conditions in past years. The results will help you decide how hot, cold, wet, or windy it might be!

Date:

Astronomy

Dec. 27, 2012 Rise Set
Actual Time 8:07 AM EST 5:06 PM EST
Civil Twilight 7:34 AM EST 5:38 PM EST
Nautical Twilight 6:58 AM EST 6:15 PM EST
Astronomical Twilight 6:23 AM EST 6:49 PM EST
Moon 4:49 PM EST (12/27) 7:16 AM EST (12/27)
Length of Visible Light 10h 04m
Length of Day
8h 58m
Full, 100% of the Moon is Illuminated
Dec 27
Full
Dec 28
Full
Jan 4
Last Quarter
Jan 11
New
Jan 18
First Quarter

Hourly Weather History & Observations

Time (EST) Temp. Windchill Dew Point Humidity Pressure Visibility Wind Dir Wind Speed Gust Speed Precip Events Conditions
12:12 AM 26.6 °F 13.4 °F 26.6 °F 100% 29.93 in 1.8 mi North 18.4 mph 23.0 mph N/A Snow Light Snow
12:32 AM 26.6 °F 13.4 °F 26.6 °F 100% 29.93 in 2.5 mi North 18.4 mph 24.2 mph N/A Snow Light Snow
12:52 AM 26.6 °F 14.3 °F 26.6 °F 100% 29.93 in 3.0 mi North 16.1 mph 23.0 mph N/A Snow Light Snow
1:12 AM 28.4 °F 17.0 °F 26.6 °F 93% 29.94 in 4.0 mi North 15.0 mph 23.0 mph N/A Snow Light Snow
1:32 AM 28.4 °F 16.6 °F 26.6 °F 93% 29.94 in 5.0 mi North 16.1 mph 24.2 mph N/A Snow Light Snow
1:52 AM 28.4 °F 16.6 °F 26.6 °F 93% 29.95 in 5.0 mi North 16.1 mph 23.0 mph N/A Snow Light Snow
2:14 AM 28.4 °F 16.2 °F 26.6 °F 93% 29.95 in 4.0 mi North 17.3 mph 23.0 mph N/A Snow Light Snow
2:34 AM 28.4 °F 14.4 °F 26.6 °F 93% 29.95 in 4.0 mi North 23.0 mph 27.6 mph N/A Snow Light Snow
2:55 AM 28.4 °F 14.4 °F 26.6 °F 93% 29.96 in 3.0 mi North 23.0 mph 27.6 mph N/A Snow Light Snow
3:15 AM 28.4 °F 16.6 °F 26.6 °F 93% 29.97 in 3.0 mi North 16.1 mph 26.5 mph N/A Snow Light Snow
3:35 AM 26.6 °F 13.8 °F 24.8 °F 93% 29.98 in 5.0 mi North 17.3 mph - N/A Snow Light Snow
3:55 AM 28.4 °F 15.4 °F 24.8 °F 86% 29.99 in 10.0 mi North 19.6 mph 23.0 mph N/A Snow Light Snow
4:15 AM 28.4 °F 17.5 °F 24.8 °F 86% 29.99 in 10.0 mi North 13.8 mph 20.7 mph N/A   Overcast
4:52 AM 26.6 °F 15.2 °F 23.0 °F 86% 30.00 in 10.0 mi North 13.8 mph 21.9 mph N/A   Overcast
5:12 AM 26.6 °F 16.2 °F 23.0 °F 86% 30.01 in 10.0 mi North 11.5 mph 19.6 mph N/A Snow Light Snow
5:32 AM 26.6 °F 15.7 °F 23.0 °F 86% 30.01 in 7.0 mi North 12.7 mph 18.4 mph N/A Snow Light Snow
5:52 AM 26.6 °F 16.2 °F 23.0 °F 86% 30.01 in 7.0 mi North 11.5 mph - N/A Snow Light Snow
6:13 AM 26.6 °F 17.5 °F 23.0 °F 86% 30.02 in 7.0 mi North 9.2 mph - N/A Snow Light Snow
6:33 AM 24.8 °F 14.6 °F 23.0 °F 93% 30.03 in 7.0 mi North 10.4 mph - N/A Snow Light Snow
6:53 AM 24.8 °F 16.1 °F 23.0 °F 93% 30.04 in 10.0 mi North 8.1 mph - N/A Snow Light Snow
7:14 AM 24.8 °F 16.1 °F 23.0 °F 93% 30.05 in 10.0 mi NNW 8.1 mph - N/A Snow Light Snow
7:34 AM 24.8 °F 15.3 °F 21.2 °F 86% 30.06 in 10.0 mi NW 9.2 mph - N/A   Overcast
7:54 AM 24.8 °F 15.3 °F 21.2 °F 86% 30.06 in 10.0 mi NNW 9.2 mph - N/A   Overcast
8:14 AM 24.8 °F 15.3 °F 21.2 °F 86% 30.07 in 10.0 mi NW 9.2 mph - N/A   Overcast
8:34 AM 24.8 °F 16.9 °F 21.2 °F 86% 30.07 in 10.0 mi NW 6.9 mph - N/A   Overcast
8:54 AM 23.0 °F 14.7 °F 21.2 °F 93% 30.08 in 10.0 mi NW 6.9 mph - N/A   Overcast
9:14 AM 24.8 °F 16.9 °F 21.2 °F 86% 30.09 in 10.0 mi NW 6.9 mph - N/A   Overcast
9:34 AM 24.8 °F 16.9 °F 21.2 °F 86% 30.09 in 10.0 mi NNW 6.9 mph - N/A   Overcast
9:54 AM 24.8 °F 17.9 °F 21.2 °F 86% 30.10 in 10.0 mi NW 5.8 mph - N/A   Overcast
10:15 AM 26.6 °F 20.0 °F 21.2 °F 80% 30.10 in 10.0 mi NNW 5.8 mph - N/A   Overcast
10:35 AM 26.6 °F 19.1 °F 21.2 °F 80% 30.09 in 10.0 mi North 6.9 mph - N/A   Scattered Clouds
10:55 AM 26.6 °F 20.0 °F 21.2 °F 80% 30.10 in 10.0 mi North 5.8 mph - N/A   Clear
11:35 AM 26.6 °F 19.1 °F 21.2 °F 80% 30.09 in 10.0 mi NNE 6.9 mph - N/A   Clear
11:55 AM 26.6 °F 22.6 °F 21.2 °F 80% 30.09 in 10.0 mi NNW 3.5 mph - N/A   Clear
12:15 PM 28.4 °F 23.3 °F 19.4 °F 69% 30.09 in 10.0 mi WNW 4.6 mph - N/A   Clear
12:35 PM 28.4 °F 21.2 °F 19.4 °F 69% 30.09 in 10.0 mi West 6.9 mph - N/A   Clear
12:50 PM 28.4 °F 22.2 °F 19.4 °F 69% 30.08 in 10.0 mi NW 5.8 mph - N/A   Clear
1:11 PM 28.4 °F 23.3 °F 19.4 °F 69% 30.07 in 10.0 mi NNW 4.6 mph - N/A   Clear
1:31 PM 28.4 °F 23.3 °F 19.4 °F 69% 30.07 in 10.0 mi NNW 4.6 mph - N/A   Clear
1:51 PM 30.2 °F 22.6 °F 19.4 °F 64% 30.08 in 10.0 mi West 8.1 mph - N/A   Clear
2:11 PM 30.2 °F 24.3 °F 17.6 °F 60% 30.08 in 10.0 mi WNW 5.8 mph - N/A   Clear
2:31 PM 30.2 °F 23.4 °F 19.4 °F 64% 30.07 in 10.0 mi WNW 6.9 mph - N/A   Clear
2:51 PM 30.2 °F 26.7 °F 19.4 °F 64% 30.08 in 10.0 mi West 3.5 mph - N/A   Clear
3:11 PM 32.0 °F 28.7 °F 19.4 °F 60% 30.08 in 10.0 mi WNW 3.5 mph - N/A   Clear
3:31 PM 30.2 °F 24.3 °F 17.6 °F 60% 30.08 in 10.0 mi WNW 5.8 mph - N/A   Clear
3:51 PM 30.2 °F 25.4 °F 17.6 °F 60% 30.09 in 10.0 mi NW 4.6 mph - N/A   Clear
4:11 PM 30.2 °F 26.7 °F 17.6 °F 60% 30.09 in 10.0 mi WNW 3.5 mph - N/A   Clear
4:32 PM 30.2 °F 25.4 °F 17.6 °F 60% 30.09 in 10.0 mi NW 4.6 mph - N/A   Clear
4:52 PM 28.4 °F 24.6 °F 17.6 °F 64% 30.10 in 10.0 mi WNW 3.5 mph - N/A   Clear
5:12 PM 26.6 °F 22.6 °F 17.6 °F 69% 30.09 in 10.0 mi NNW 3.5 mph - N/A   Clear
5:32 PM 26.6 °F 20.0 °F 15.8 °F 64% 30.10 in 10.0 mi WNW 5.8 mph - N/A   Clear
5:52 PM 26.6 °F 22.6 °F 15.8 °F 64% 30.10 in 10.0 mi WNW 3.5 mph - N/A   Clear
6:12 PM 24.8 °F - 14.0 °F 64% 30.10 in 10.0 mi Calm Calm - N/A   Clear
6:32 PM 24.8 °F 20.5 °F 15.8 °F 69% 30.11 in 10.0 mi WNW 3.5 mph - N/A   Clear
6:52 PM 23.0 °F 18.4 °F 14.0 °F 68% 30.11 in 10.0 mi NW 3.5 mph - N/A   Clear
7:32 PM 23.0 °F - 14.0 °F 68% 30.11 in 10.0 mi Calm Calm - N/A   Clear
7:53 PM 21.2 °F 16.4 °F 14.0 °F 74% 30.13 in 10.0 mi West 3.5 mph - N/A   Clear
8:13 PM 23.0 °F 17.0 °F 14.0 °F 68% 30.13 in 10.0 mi WNW 4.6 mph - N/A   Clear
8:33 PM 21.2 °F 13.6 °F 12.2 °F 68% 30.14 in 10.0 mi WNW 5.8 mph - N/A   Clear
8:53 PM 23.0 °F 14.7 °F 14.0 °F 68% 30.14 in 10.0 mi NW 6.9 mph - N/A   Clear
9:13 PM 23.0 °F 14.7 °F 14.0 °F 68% 30.14 in 10.0 mi WNW 6.9 mph - N/A   Clear
9:33 PM 23.0 °F 15.8 °F 14.0 °F 68% 30.14 in 10.0 mi NNW 5.8 mph - N/A   Clear
9:53 PM 23.0 °F 15.8 °F 14.0 °F 68% 30.14 in 10.0 mi NW 5.8 mph - N/A   Clear
10:13 PM 23.0 °F 17.0 °F 14.0 °F 68% 30.13 in 10.0 mi NNW 4.6 mph - N/A   Clear
10:33 PM 21.2 °F 16.4 °F 14.0 °F 74% 30.13 in 10.0 mi NNW 3.5 mph - N/A   Clear
10:53 PM 23.0 °F 18.4 °F 14.0 °F 68% 30.13 in 10.0 mi NNW 3.5 mph - N/A   Clear
11:14 PM 21.2 °F - 14.0 °F 74% 30.12 in 10.0 mi Calm Calm - N/A   Clear
11:34 PM 19.4 °F - 12.2 °F 74% 30.13 in 10.0 mi Calm Calm - N/A   Clear
11:54 PM 19.4 °F 14.3 °F 12.2 °F 74% 30.13 in 10.0 mi WNW 3.5 mph - N/A   Clear